Location: Trebic
(49.2170°N, 15.8830°E)
Time: 05:11:14
(UTC+02:00)

Transit 2A Rocket - Pass Details

Date: 30 July 2019
Orbit: 590 x 913 km, 66.7° (Epoch: 21 August)

Event Time Altitude Azimuth Distance (km) Brightness Sun altitude
Rises 00:58:49 0° 178° (S) 3,510 - -22.1°
Reaches altitude 10° 01:01:42 10° 167° (SSE) 2,548 - -22.1°
Exits shadow 01:05:51 26° 124° (ESE) 1,624 6.4 -22.1°
Maximum altitude 01:06:34 27° 111° (ESE) 1,590 6.4 -22.1°
Drops below altitude 10° 01:11:13 10° 56° (NE) 2,423 8.0 -22.1°
Sets 01:13:53 0° 44° (NE) 3,306 9.0 -22.1°
